Wind_Speed
17 14 14 15 17 16 13 14 16 17 18 19 19 20 19 20 19 18 17 16 15 15 15 14 12 11 11 14 16 16 16 15 15 15 15 14 12 11 11 10 10 9 8 7 6 5 6 5 5 6 6 7 6 7 7 6 4 3 3 2 1 1 1
17 17 17 17 18 17 16 17 18 18 18 19 20 21 20 20 19 17 16 15 14 14 14 13 11 10 11 12 13 12 12 13 14 15 14 13 12 12 12 11 11 9 8 7 5 5 6 6 5 6 6 5 5 6 6 6 5 4 4 3 2 1 1
18 18 18 19 20 20 20 19 18 18 18 19 20 21 20 20 18 17 15 14 14 14 13 11 10 11 12 12 11 11 11 12 13 13 13 13 13 12 11 11 11 10 8 6 5 5 5 5 5 5 5 5 5 5 5 6 6 5 5 4 3 3 2
19 19 19 20 20 21 21 19 18 17 17 19 20 21 20 19 18 16 15 14 15 14 12 11 12 13 13 12 11 11 11 11 13 13 14 13 12 12 11 10 10 11 10 8 7 6 6 6 5 5 5 5 5 5 6 6 6 6 6 5 5 4 4
21 20 19 19 19 20 20 19 18 18 18 19 20 21 20 19 17 16 15 15 15 13 12 13 14 14 13 12 11 11 11 11 12 13 13 13 12 12 12 11 11 11 10 9 7 7 8 8 7 6 6 5 5 5 6 7 7 7 7 6 6 6 6
22 19 18 17 17 18 19 19 19 18 18 19 19 20 19 18 16 15 14 14 13 13 13 14 15 14 13 12 12 12 11 11 12 12 12 13 13 13 13 13 12 10 10 9 8 8 8 8 8 7 7 7 6 6 7 8 8 7 7 6 6 7 7
21 18 16 15 17 19 19 19 18 18 18 18 19 19 19 17 16 15 14 14 13 14 15 15 14 14 13 12 12 12 12 12 12 12 12 13 14 14 13 13 12 11 10 10 9 9 8 8 8 8 7 7 7 7 7 8 8 7 7 7 7 7 7
21 17 14 14 16 19 20 19 18 18 17 18 19 19 18 17 16 15 15 14 14 15 15 15 14 14 13 13 13 13 13 12 12 13 13 13 14 13 13 13 13 12 11 11 10 10 10 10 10 9 8 6 6 7 7 8 8 9 9 8 8 8 8
19 14 12 14 16 17 19 19 19 18 18 19 20 19 18 17 17 16 16 15 15 15 15 14 14 14 14 14 13 13 12 12 12 13 13 13 13 14 14 14 13 13 12 12 11 11 12 11 9 9 8 7 6 7 7 8 8 9 9 9 9 10 10
17 15 14 16 16 17 17 19 20 20 20 22 22 20 18 18 17 17 16 16 16 15 15 15 14 14 14 14 14 13 13 13 13 13 13 13 13 14 15 15 14 14 13 13 12 13 12 11 9 9 9 8 8 7 7 8 9 9 10 11 11 11 11
17 17 17 17 18 17 17 18 20 21 22 23 23 20 19 18 17 17 16 16 16 16 15 15 15 15 15 14 15 14 14 14 14 13 12 12 12 13 14 15 15 14 14 14 14 13 12 11 10 10 10 9 8 7 8 9 10 10 11 12 13 13 13
20 18 18 18 19 18 17 18 19 20 22 22 21 20 19 18 17 16 16 16 17 17 16 16 16 15 15 15 15 15 15 15 14 14 13 12 12 13 14 15 15 14 14 15 15 14 13 12 12 12 11 10 9 8 8 9 10 10 11 12 12 13 13
22 19 19 19 19 19 19 19 18 19 21 21 20 20 19 18 17 17 17 17 16 17 16 16 16 16 16 16 16 16 15 15 15 14 14 14 13 13 14 14 15 14 15 16 16 15 14 13 13 12 11 11 10 9 9 9 10 10 10 10 10 11 12
24 21 20 19 20 20 20 20 19 19 21 20 21 22 20 19 18 17 17 17 16 16 16 15 16 16 17 17 17 16 16 16 15 15 15 14 14 14 14 15 15 16 17 17 17 17 16 15 14 13 13 12 11 10 10 10 11 10 9 7 8 9 10
26 25 21 18 19 21 21 21 21 20 20 20 22 23 21 20 19 17 17 17 17 16 16 16 17 17 17 17 17 16 16 16 16 16 15 15 14 14 15 15 16 17 17 17 18 18 17 16 15 14 13 12 11 10 11 11 11 10 8 5 4 5 7
26 25 23 20 20 21 21 22 22 20 19 20 22 22 21 19 18 17 16 17 17 16 16 16 17 17 17 17 16 16 16 16 16 16 16 15 14 15 16 16 17 18 17 17 17 17 17 16 15 15 13 12 11 11 11 11 10 8 6 2 1 3 4
23 24 25 23 21 21 21 23 23 21 20 22 22 22 20 19 17 17 17 17 16 15 16 17 17 17 17 16 16 16 16 16 16 16 16 15 15 15 16 17 18 18 17 16 16 17 17 16 16 15 13 12 12 11 10 10 8 6 4 1 2 3 4
25 26 27 25 23 23 24 24 24 23 22 23 23 22 21 20 18 18 18 17 16 16 16 16 16 16 16 16 16 15 15 16 16 16 16 16 15 16 17 18 18 19 18 17 17 17 17 17 16 15 13 12 11 11 10 9 8 7 5 2 2 3 4
26 26 27 26 25 25 26 26 26 24 22 24 24 24 23 21 20 20 18 17 17 17 15 15 15 16 16 16 15 15 15 15 16 16 16 16 17 18 18 18 19 20 19 17 17 17 16 16 16 15 13 11 10 10 9 8 9 9 7 5 5 5 6
25 26 27 26 26 26 26 26 25 24 23 24 25 25 25 23 22 22 19 18 18 16 14 15 15 15 15 15 15 15 15 14 15 16 17 17 18 19 19 19 19 19 19 18 18 17 16 16 16 15 13 11 10 9 8 7 7 8 7 6 7 8 9
27 27 27 27 26 26 27 27 28 27 27 27 27 27 26 24 25 24 21 18 17 14 13 14 15 15 15 14 14 14 14 14 16 17 17 18 19 19 19 18 18 19 19 19 18 17 16 16 16 15 13 11 10 9 8 7 7 6 6 7 8 9 10
30 29 28 27 25 27 28 29 30 29 29 30 29 28 27 26 26 25 22 19 16 13 13 13 14 15 14 13 13 14 14 15 15 16 16 17 18 19 19 18 18 20 21 20 18 17 17 17 16 15 14 12 11 10 9 9 8 7 7 8 9 10 11
31 30 28 26 25 26 28 28 29 29 30 30 30 30 28 26 25 24 22 18 16 14 13 13 14 14 13 13 13 13 13 13 14 14 14 15 16 18 19 18 18 20 21 20 18 18 18 18 17 17 16 14 13 12 12 10 10 10 10 11 12 13 15
30 28 27 26 26 27 27 28 29 30 31 30 29 31 29 26 25 24 21 19 17 15 13 14 14 13 12 12 12 11 11 11 12 13 13 14 16 18 18 17 18 19 20 20 18 18 19 19 18 17 17 17 16 15 14 13 12 13 13 14 15 16 17
27 26 26 27 27 27 27 29 29 30 32 31 30 31 29 26 25 24 22 20 18 15 14 14 13 11 11 10 10 10 10 10 11 12 13 15 16 18 18 18 18 19 19 19 19 18 19 19 19 18 18 18 18 17 16 15 15 16 16 17 18 19 20
24 24 25 26 26 25 27 29 28 29 31 32 30 31 30 27 26 24 22 21 18 16 15 14 13 11 10 9 9 9 10 11 11 12 14 15 16 18 19 19 19 20 20 20 20 20 20 20 20 21 20 20 19 19 19 18 18 18 19 19 20 21 21
23 22 24 24 24 25 27 28 28 29 31 32 31 30 30 28 26 24 22 20 19 18 17 15 14 12 11 10 10 10 10 12 13 13 14 15 17 18 20 20 20 20 21 21 21 21 21 21 22 23 23 22 22 22 22 21 21 21 21 21 21 22 22
19 19 21 22 24 25 26 28 30 30 32 34 33 30 29 28 26 25 23 22 22 21 19 17 14 14 13 12 12 11 11 12 13 14 14 16 18 20 21 22 22 23 23 23 23 22 23 24 25 25 24 23 23 23 23 23 23 23 23 23 23 23 23
14 15 17 21 24 24 26 29 31 30 32 36 35 31 30 29 28 27 26 25 25 25 22 19 17 16 16 15 15 15 14 14 14 14 14 16 18 20 22 23 24 25 26 25 25 24 24 25 25 25 24 24 24 23 24 24 25 25 25 24 24 24 24
9 11 14 19 23 24 26 29 29 29 33 37 36 33 32 31 30 30 28 26 25 25 23 21 20 19 19 18 18 18 17 16 16 17 17 17 19 20 22 23 24 26 27 26 25 24 24 25 25 25 24 23 23 24 25 25 26 26 26 27 27 27 27
8 11 15 18 21 24 26 28 29 28 31 36 36 33 33 33 33 31 28 25 25 25 24 24 23 22 22 21 20 20 20 19 19 19 19 20 20 21 23 24 25 25 25 24 23 23 23 24 25 26 26 25 24 25 26 26 27 27 28 28 29 29 30
12 13 14 15 18 23 24 26 28 27 29 34 35 33 32 33 34 32 28 26 26 26 26 26 25 25 25 23 23 23 23 22 22 22 23 23 23 25 27 26 25 25 24 24 24 23 23 23 25 27 29 28 28 27 27 28 29 29 29 30 31 32 34
13 13 13 14 16 21 21 21 24 28 32 35 35 32 33 33 32 30 28 28 29 28 28 28 27 27 27 26 26 25 23 22 23 24 25 25 24 26 28 28 27 27 26 25 25 25 26 27 27 28 28 28 28 28 28 29 30 31 32 34 35 36 37
10 10 11 14 16 18 19 18 21 27 32 33 31 32 33 34 33 31 29 28 29 29 30 30 29 29 29 28 28 26 23 23 24 25 26 26 25 26 27 27 28 28 27 26 27 29 31 32 31 29 28 28 29 31 33 34 35 36 37 37 37 37 36
9 9 8 13 18 20 20 19 21 24 26 26 27 30 33 34 35 35 33 31 30 30 31 31 30 30 30 29 28 27 25 26 28 29 29 29 29 29 30 31 31 30 29 29 29 31 32 33 32 31 31 32 33 35 35 35 34 34 33 33 33 33 32
9 9 8 10 17 20 21 22 24 25 25 25 25 28 31 31 31 33 34 33 33 32 31 31 31 32 31 30 29 28 27 28 30 29 26 26 27 28 30 31 32 32 32 31 29 28 29 29 30 30 31 32 32 32 32 30 29 29 29 29 30 32 32
8 7 8 10 13 15 17 21 26 29 30 29 29 30 32 33 32 32 32 33 34 33 33 34 35 34 32 32 31 30 30 31 30 26 24 24 25 25 25 26 26 26 25 25 24 24 25 26 27 28 29 29 28 28 28 28 28 29 30 31 32 33 34
Wind_Direction
207 225 236 237 245 247 238 233 236 236 232 229 223 218 216 215 217 219 220 221 221 224 225 221 220 220 225 232 235 239 244 244 242 237 233 229 221 221 229 233 237 240 243 247 248 259 264 262 268 267 262 265 253 231 222 224 229 216 200 204 195 171 180
214 228 237 236 236 238 237 235 236 235 231 227 223 219 216 217 220 222 224 224 221 221 223 222 222 223 224 227 231 236 237 235 231 227 224 219 214 218 226 230 233 235 240 250 256 269 274 271 269 260 249 251 255 244 229 225 227 217 210 212 212 219 208
226 234 240 242 239 236 234 233 234 235 231 226 223 219 216 218 221 223 225 223 220 220 220 222 227 228 224 221 222 222 219 219 218 218 217 214 212 217 224 230 234 233 229 234 238 246 264 271 270 262 244 225 228 235 225 219 221 221 225 228 230 236 223
232 238 242 246 246 241 236 232 233 233 230 226 222 219 217 219 222 223 223 220 221 221 217 219 227 229 226 223 223 222 218 215 214 214 215 216 217 219 223 226 229 229 227 228 227 226 235 240 244 253 249 233 224 228 227 226 229 236 244 242 236 237 234
227 233 240 243 241 239 235 233 233 231 229 227 222 220 219 220 223 222 221 220 221 220 216 219 223 225 227 227 226 225 223 220 219 219 219 220 223 222 223 223 222 224 228 233 233 230 233 232 229 236 239 232 227 233 240 239 239 243 247 249 246 242 239
221 222 230 236 233 230 230 232 234 231 229 228 224 222 221 223 225 223 220 219 220 219 218 222 223 224 227 227 226 227 228 226 226 226 225 226 226 223 222 222 220 220 225 231 231 229 235 235 233 239 241 238 238 242 247 248 248 250 249 248 249 246 244
227 218 221 231 231 227 227 231 234 231 228 226 224 223 223 224 224 222 220 220 220 220 221 223 224 226 227 224 223 225 227 228 229 229 228 230 230 228 226 224 219 216 220 228 231 227 230 230 227 233 241 248 258 259 259 260 258 255 250 244 242 242 244
240 226 218 230 236 233 231 231 232 229 225 223 222 221 222 222 221 219 221 224 224 223 224 225 226 228 228 225 222 223 225 228 232 233 233 233 233 232 229 225 221 218 218 223 228 225 224 225 224 227 231 237 251 258 263 269 269 264 261 253 245 239 237
255 253 240 243 244 240 237 235 230 225 221 219 218 218 219 219 219 219 222 226 227 226 225 225 225 227 228 227 225 225 228 231 234 237 236 233 231 232 229 226 224 222 220 220 220 220 219 222 226 230 229 222 229 249 261 267 267 265 263 258 253 245 236
261 271 262 255 249 242 239 235 227 219 217 215 212 212 216 216 217 219 222 226 226 226 226 225 226 227 227 228 227 227 227 229 232 235 236 232 227 228 228 228 226 222 221 220 216 214 215 217 224 231 232 225 228 244 254 255 250 250 254 254 253 250 244
257 265 261 257 253 245 236 231 226 219 217 216 210 207 212 214 215 219 221 224 226 226 227 228 229 230 230 230 229 228 226 226 230 232 233 232 229 229 229 228 227 223 219 218 214 210 209 212 220 225 229 230 232 239 245 246 243 245 251 253 251 248 246
254 258 256 254 253 248 237 227 225 222 219 218 212 207 211 213 215 219 220 223 226 227 229 230 231 231 231 230 228 228 228 227 230 232 232 232 232 232 230 227 227 224 217 215 214 210 206 209 216 220 224 227 228 232 238 243 245 247 251 254 253 249 244
249 252 253 249 247 246 239 227 223 223 220 216 211 209 211 212 214 219 221 222 224 227 229 230 230 230 229 228 227 228 230 230 232 233 233 233 231 230 230 227 225 221 215 213 213 212 209 210 215 219 223 225 224 224 231 238 242 244 247 247 247 245 241
245 249 250 248 245 244 238 228 221 222 222 217 209 208 209 209 211 215 219 221 221 224 227 226 227 228 226 227 228 230 232 234 235 236 235 233 230 228 228 225 223 219 215 212 213 215 214 213 216 220 222 223 220 217 222 231 233 232 235 236 234 236 238
242 248 249 248 246 246 244 233 223 218 219 214 208 208 208 205 206 210 215 220 221 222 223 221 221 222 223 226 229 232 235 237 239 239 237 234 230 226 223 221 221 221 219 217 218 220 221 218 216 217 220 221 218 217 224 228 224 219 220 225 237 245 243
242 250 256 256 250 247 247 240 229 219 215 212 211 210 208 203 204 208 215 221 223 222 220 217 218 220 223 228 230 232 235 237 240 239 236 234 230 222 219 220 222 223 223 222 221 222 224 223 216 212 216 220 220 222 225 220 212 206 202 200 315 301 274
247 249 255 258 252 246 244 239 231 223 216 213 213 209 206 207 207 209 218 223 222 218 216 215 219 222 225 228 230 231 233 235 238 238 235 232 226 219 218 221 223 225 224 224 221 218 220 222 216 212 218 223 226 229 225 213 207 202 186 139 6 328 307
249 248 252 255 247 238 236 232 228 225 218 213 211 206 204 209 210 212 220 222 217 214 215 217 219 222 225 228 229 230 232 233 235 236 235 230 223 217 217 219 222 224 224 223 222 217 217 219 217 217 224 228 231 236 230 216 212 215 207 203 274 297 298
255 256 260 260 247 234 230 229 225 220 215 213 210 204 203 207 210 213 218 219 214 214 219 223 224 224 224 226 227 229 232 232 234 235 233 229 223 218 216 218 220 222 222 223 222 217 215 219 220 223 229 230 232 241 241 227 221 223 224 230 254 273 281
269 268 267 262 252 241 237 237 232 219 210 211 209 202 201 205 206 207 210 215 216 215 220 228 230 229 227 225 225 227 231 232 234 234 231 228 224 218 218 221 221 220 219 221 222 218 217 222 225 229 235 234 238 251 253 242 231 230 237 251 266 276 278
268 266 260 255 252 247 239 239 238 225 208 205 205 201 200 202 205 206 208 214 216 214 219 225 229 232 230 226 224 225 228 229 231 233 232 229 225 218 218 222 221 218 217 217 218 218 220 224 228 232 238 242 247 253 249 240 236 243 260 269 270 269 268
263 262 256 251 251 247 237 234 235 225 207 200 199 199 200 202 205 208 208 210 211 211 216 220 225 230 228 222 221 223 226 229 232 234 234 232 226 218 217 220 220 218 216 215 215 216 217 222 225 229 236 243 245 242 238 236 238 244 254 260 260 258 258
264 262 257 251 248 243 236 234 233 220 207 200 194 194 199 202 203 205 205 204 206 211 216 216 221 227 222 215 216 219 223 230 234 236 235 230 224 218 218 221 219 216 214 215 217 217 218 221 224 225 230 234 234 233 234 236 236 235 237 242 248 255 259
262 264 260 252 246 241 234 234 231 217 206 202 193 191 197 201 202 203 201 198 202 210 215 215 217 222 220 217 217 215 216 223 229 233 232 227 220 217 219 219 217 215 213 216 221 222 222 225 226 226 228 231 233 235 239 243 245 246 247 249 253 258 263
260 264 262 252 246 240 230 228 227 215 206 203 197 194 198 201 201 200 198 198 203 207 208 209 213 217 220 223 223 217 211 214 221 225 227 225 219 217 218 217 218 220 218 219 224 226 227 231 234 234 233 235 237 241 244 248 253 256 259 262 264 267 270
258 258 257 251 244 236 227 224 221 211 205 203 198 196 197 199 199 198 198 201 203 203 205 208 214 220 224 229 229 221 211 209 213 217 222 225 222 220 220 220 222 226 224 223 226 229 232 235 238 241 240 240 244 247 250 251 252 256 260 263 267 270 273
257 252 248 246 241 231 223 220 214 206 203 201 198 197 196 196 197 197 201 205 203 203 206 210 217 224 226 228 228 222 214 211 211 212 216 222 223 222 223 223 224 227 229 229 230 233 235 236 237 240 242 243 246 250 253 255 256 259 263 264 265 266 268
251 245 240 241 239 230 223 218 211 205 204 200 196 196 196 196 198 201 204 207 207 206 207 208 214 221 223 225 228 228 226 223 220 216 214 218 221 221 222 224 225 227 230 232 232 232 232 233 234 237 240 242 245 248 251 254 258 261 263 263 263 262 263
253 237 232 234 236 230 225 221 213 205 205 202 197 196 198 198 201 205 208 211 212 213 214 215 217 221 223 227 231 235 237 237 235 231 225 222 222 222 222 224 225 228 230 230 230 229 229 230 231 233 237 241 244 248 251 253 256 258 259 260 261 262 263
274 246 239 238 236 230 224 221 213 204 205 205 200 199 202 201 203 207 211 214 215 217 221 223 222 222 223 226 232 237 240 240 240 240 236 233 231 229 227 226 225 226 229 230 229 228 229 231 232 231 235 240 244 247 251 254 256 257 257 258 259 261 263
300 263 251 245 241 232 221 215 210 206 209 208 202 200 203 204 205 209 213 217 218 220 224 226 226 227 227 227 231 235 237 238 240 242 242 240 238 236 235 233 230 228 228 230 233 233 234 236 236 236 237 241 244 248 250 252 255 257 258 258 260 263 265
312 282 262 254 246 234 221 213 212 211 209 204 198 198 205 208 208 212 218 222 223 224 226 228 230 232 233 232 233 235 237 238 239 240 241 242 242 243 240 237 236 234 232 234 239 242 241 241 243 244 246 249 252 256 257 256 258 261 263 264 265 266 269
309 289 265 251 238 227 221 218 217 211 203 199 196 199 205 207 209 215 221 225 226 227 228 229 231 234 235 236 235 235 236 239 240 240 241 242 244 242 235 229 229 230 230 234 240 245 247 249 251 254 257 259 261 264 265 265 266 268 270 271 271 272 273
308 290 248 219 203 205 213 221 223 215 206 203 204 206 208 209 211 216 222 228 231 231 229 228 230 233 234 233 233 234 234 236 240 242 241 241 242 240 236 233 230 227 227 232 239 245 250 254 257 259 261 264 267 269 272 273 274 273 273 273 273 274 274
300 298 256 210 198 205 214 221 225 225 223 222 219 216 217 218 218 221 225 230 232 230 228 228 229 230 229 229 232 236 238 240 245 247 245 243 243 242 243 244 242 239 241 245 248 249 252 255 256 259 263 268 272 274 276 277 277 277 276 274 274 275 278
281 285 271 220 202 207 212 209 204 206 215 225 224 220 220 221 221 222 224 225 225 224 225 226 225 225 228 232 236 239 244 249 253 253 249 247 248 248 248 249 248 249 251 254 254 254 255 256 259 264 270 274 276 277 277 278 278 278 277 277 278 280 282
279 262 253 224 204 204 208 203 195 190 195 205 210 212 216 219 220 221 220 220 222 222 221 222 224 227 236 243 245 247 252 255 253 250 249 250 252 254 254 254 254 254 255 257 259 260 263 266 268 271 273 274 275 275 276 277 278 280 281 282 283 283 284
Height
3131 3132 3133 3133 3131 3131 3133 3135 3136 3137 3138 3139 3139 3140 3141 3141 3142 3143 3144 3145 3146 3146 3147 3149 3150 3151 3152 3153 3154 3154 3154 3155 3156 3157 3157 3159 3160 3160 3161 3161 3162 3163 3164 3164 3164 3164 3165 3165 3165 3165 3165 3166 3167 3167 3167 3167 3167 3168 3168 3168 3168 3169 3169
3132 3132 3132 3132 3132 3131 3132 3134 3135 3136 3137 3138 3138 3139 3139 3140 3141 3142 3142 3143 3144 3145 3146 3147 3148 3149 3151 3152 3153 3153 3153 3154 3155 3156 3157 3158 3158 3159 3160 3160 3161 3162 3163 3163 3164 3164 3164 3165 3165 3165 3165 3166 3167 3167 3167 3167 3167 3167 3168 3168 3168 3168 3168
3131 3131 3131 3131 3131 3131 3132 3133 3134 3135 3136 3137 3137 3138 3138 3139 3140 3141 3141 3142 3143 3144 3145 3146 3147 3149 3150 3151 3152 3152 3153 3154 3155 3156 3156 3157 3157 3158 3159 3160 3161 3162 3162 3163 3163 3163 3164 3164 3164 3165 3165 3166 3166 3167 3167 3167 3167 3167 3167 3167 3168 3168 3168
3129 3129 3129 3130 3130 3130 3131 3132 3133 3134 3135 3135 3136 3136 3137 3137 3138 3139 3140 3141 3142 3143 3144 3145 3147 3148 3149 3150 3151 3151 3152 3153 3154 3155 3156 3156 3157 3158 3159 3160 3160 3161 3161 3162 3162 3162 3163 3163 3164 3164 3165 3166 3166 3166 3166 3166 3166 3166 3166 3167 3167 3167 3167
3126 3127 3127 3128 3128 3129 3130 3131 3132 3133 3134 3134 3135 3135 3136 3136 3137 3138 3139 3140 3141 3142 3143 3145 3147 3148 3148 3149 3149 3150 3151 3152 3153 3154 3155 3156 3157 3157 3158 3159 3159 3160 3160 3161 3161 3162 3162 3163 3163 3164 3164 3165 3166 3166 3166 3165 3165 3165 3166 3166 3166 3166 3166
3121 3122 3124 3125 3126 3127 3128 3129 3130 3132 3133 3133 3134 3135 3135 3136 3137 3138 3139 3140 3141 3141 3143 3144 3146 3147 3147 3148 3148 3149 3150 3151 3152 3153 3154 3155 3155 3156 3157 3158 3158 3159 3159 3160 3160 3161 3162 3162 3163 3163 3164 3165 3165 3165 3165 3165 3165 3165 3165 3165 3165 3165 3165
3119 3119 3120 3122 3124 3124 3126 3127 3128 3130 3131 3133 3134 3134 3135 3135 3136 3137 3138 3138 3139 3140 3142 3143 3144 3145 3146 3147 3147 3148 3149 3149 3150 3151 3152 3153 3154 3155 3155 3156 3157 3158 3158 3159 3160 3160 3161 3162 3162 3163 3163 3164 3165 3165 3165 3164 3164 3164 3164 3164 3164 3164 3165
3118 3117 3117 3119 3121 3122 3124 3125 3126 3128 3130 3131 3132 3133 3133 3134 3134 3135 3136 3137 3138 3139 3140 3142 3143 3144 3145 3146 3146 3147 3148 3148 3149 3150 3151 3152 3153 3153 3154 3155 3156 3157 3157 3158 3159 3159 3160 3161 3161 3162 3163 3163 3164 3164 3164 3164 3164 3163 3163 3164 3164 3164 3164
3115 3115 3115 3117 3119 3120 3122 3123 3125 3126 3128 3129 3130 3131 3131 3132 3133 3134 3135 3136 3137 3138 3139 3140 3142 3143 3144 3145 3145 3146 3147 3147 3148 3149 3150 3150 3151 3152 3153 3153 3154 3155 3156 3157 3158 3158 3159 3160 3161 3162 3162 3162 3163 3163 3163 3163 3163 3162 3162 3162 3163 3163 3163
3113 3114 3114 3116 3117 3118 3119 3121 3123 3124 3125 3126 3127 3128 3129 3130 3131 3132 3134 3135 3136 3137 3138 3139 3140 3141 3142 3143 3144 3145 3145 3146 3147 3147 3148 3149 3150 3150 3151 3152 3153 3154 3155 3156 3157 3157 3158 3160 3160 3161 3161 3162 3162 3162 3162 3162 3161 3161 3161 3161 3162 3162 3162
3113 3113 3114 3114 3115 3116 3117 3119 3121 3122 3123 3124 3125 3126 3127 3128 3130 3131 3132 3133 3134 3135 3136 3137 3139 3140 3141 3142 3143 3143 3144 3145 3145 3146 3147 3148 3148 3149 3150 3151 3152 3153 3154 3155 3155 3156 3157 3159 3159 3160 3161 3161 3161 3161 3161 3161 3161 3161 3161 3160 3160 3161 3161
3111 3111 3112 3112 3113 3115 3116 3117 3119 3120 3122 3123 3124 3125 3126 3127 3128 3130 3131 3132 3133 3134 3135 3136 3137 3138 3139 3140 3141 3142 3143 3143 3144 3145 3146 3147 3147 3148 3149 3149 3150 3152 3153 3153 3154 3155 3156 3158 3158 3159 3160 3160 3161 3161 3161 3161 3160 3160 3160 3160 3160 3160 3161
3108 3108 3109 3110 3111 3113 3114 3115 3117 3119 3120 3122 3123 3124 3125 3126 3127 3128 3130 3131 3132 3133 3133 3134 3135 3136 3137 3139 3139 3140 3141 3142 3143 3144 3145 3146 3147 3147 3148 3148 3149 3150 3152 3152 3153 3154 3155 3156 3157 3158 3159 3159 3160 3160 3160 3160 3160 3159 3159 3159 3160 3160 3160
3105 3105 3106 3108 3110 3111 3113 3114 3115 3117 3119 3120 3122 3123 3124 3124 3125 3127 3128 3129 3130 3131 3132 3133 3133 3134 3136 3137 3138 3138 3139 3140 3141 3142 3143 3144 3146 3146 3147 3147 3148 3149 3150 3151 3151 3152 3154 3155 3156 3157 3157 3158 3159 3159 3160 3160 3159 3159 3159 3159 3159 3160 3160
3102 3103 3105 3106 3108 3110 3112 3112 3113 3114 3116 3119 3120 3121 3122 3123 3123 3125 3126 3127 3128 3129 3130 3131 3132 3133 3134 3135 3136 3137 3138 3139 3140 3141 3142 3143 3144 3145 3146 3146 3147 3148 3149 3149 3150 3152 3153 3154 3155 3156 3157 3158 3159 3159 3159 3159 3159 3158 3158 3158 3159 3159 3159
3100 3102 3104 3106 3107 3109 3110 3111 3111 3112 3115 3117 3118 3120 3120 3121 3122 3123 3124 3125 3126 3128 3128 3129 3130 3131 3132 3133 3134 3135 3136 3137 3138 3139 3141 3142 3143 3144 3145 3146 3146 3147 3148 3149 3150 3151 3152 3153 3154 3155 3156 3157 3158 3158 3159 3159 3158 3158 3158 3158 3158 3159 3159
3099 3101 3102 3103 3105 3106 3108 3109 3110 3111 3113 3115 3116 3118 3119 3120 3121 3122 3123 3124 3125 3126 3127 3128 3129 3130 3131 3132 3133 3134 3135 3136 3137 3138 3139 3141 3142 3143 3144 3145 3145 3146 3147 3148 3149 3150 3151 3152 3153 3154 3155 3155 3156 3157 3158 3158 3158 3157 3157 3157 3158 3158 3158
3097 3098 3098 3099 3101 3102 3104 3106 3107 3109 3111 3112 3114 3115 3117 3119 3120 3121 3122 3123 3124 3125 3125 3126 3127 3128 3129 3130 3132 3132 3133 3134 3135 3136 3138 3139 3141 3142 3143 3143 3144 3145 3146 3147 3149 3149 3150 3151 3152 3153 3154 3155 3155 3156 3156 3156 3157 3157 3157 3157 3157 3158 3158
3094 3095 3095 3097 3098 3099 3101 3103 3104 3106 3108 3110 3112 3114 3115 3117 3119 3120 3121 3122 3122 3123 3124 3125 3126 3127 3128 3129 3130 3131 3132 3133 3134 3135 3136 3138 3139 3140 3141 3142 3143 3144 3145 3146 3147 3148 3149 3150 3151 3152 3153 3154 3154 3155 3155 3155 3156 3156 3156 3156 3157 3158 3158
3093 3094 3094 3094 3096 3097 3099 3101 3102 3104 3106 3108 3110 3112 3113 3115 3117 3119 3120 3121 3121 3122 3123 3124 3125 3126 3127 3128 3129 3130 3130 3131 3132 3133 3134 3136 3137 3138 3140 3141 3142 3143 3144 3146 3146 3148 3149 3149 3150 3150 3151 3152 3153 3153 3154 3154 3155 3155 3155 3156 3156 3157 3157
3091 3090 3090 3091 3093 3095 3096 3097 3099 3101 3103 3105 3108 3110 3112 3113 3115 3117 3119 3120 3121 3121 3122 3123 3124 3125 3126 3127 3128 3128 3129 3130 3131 3131 3133 3134 3135 3137 3139 3140 3141 3143 3144 3145 3145 3147 3148 3148 3149 3149 3150 3151 3152 3152 3153 3153 3153 3153 3154 3154 3155 3156 3156
3087 3087 3088 3089 3090 3092 3093 3093 3095 3098 3100 3101 3104 3108 3110 3111 3113 3115 3117 3118 3120 3121 3122 3122 3123 3124 3125 3126 3127 3127 3128 3129 3129 3130 3131 3132 3134 3136 3137 3139 3140 3142 3143 3144 3144 3145 3146 3147 3148 3149 3149 3149 3150 3151 3151 3151 3152 3152 3153 3153 3154 3154 3155
3083 3084 3085 3087 3087 3088 3090 3091 3092 3095 3098 3099 3101 3105 3107 3109 3111 3113 3115 3117 3118 3119 3120 3121 3122 3123 3124 3125 3125 3126 3127 3128 3128 3129 3130 3131 3133 3134 3136 3137 3138 3140 3141 3142 3143 3144 3145 3146 3147 3147 3147 3148 3148 3149 3149 3150 3150 3151 3152 3152 3152 3152 3153
3080 3080 3082 3083 3084 3085 3087 3089 3090 3093 3096 3099 3100 3102 3105 3107 3109 3111 3113 3115 3116 3117 3119 3120 3121 3122 3123 3124 3124 3125 3126 3127 3127 3128 3129 3130 3131 3133 3134 3136 3137 3138 3139 3141 3142 3143 3143 3144 3145 3146 3146 3147 3147 3148 3148 3149 3149 3150 3151 3151 3151 3151 3151
3077 3078 3079 3079 3080 3082 3084 3086 3088 3090 3093 3097 3099 3100 3103 3106 3108 3110 3112 3113 3114 3115 3117 3119 3120 3121 3121 3122 3123 3124 3125 3126 3127 3127 3128 3129 3130 3132 3133 3135 3136 3137 3138 3139 3140 3141 3142 3143 3143 3144 3145 3145 3146 3147 3147 3148 3148 3149 3149 3149 3149 3149 3149
3074 3075 3076 3075 3077 3079 3082 3083 3085 3087 3090 3094 3097 3099 3101 3104 3106 3108 3110 3111 3112 3114 3116 3117 3118 3119 3120 3121 3122 3123 3124 3125 3126 3127 3127 3128 3129 3131 3132 3134 3135 3136 3137 3138 3139 3140 3140 3141 3142 3142 3143 3144 3145 3146 3146 3147 3147 3147 3147 3147 3147 3147 3147
3070 3072 3072 3073 3074 3076 3078 3081 3083 3085 3088 3091 3094 3097 3099 3101 3104 3106 3108 3109 3111 3113 3115 3116 3117 3117 3118 3119 3121 3122 3123 3123 3124 3126 3127 3127 3128 3129 3131 3132 3133 3134 3135 3136 3138 3138 3139 3140 3140 3141 3141 3142 3143 3143 3144 3145 3145 3145 3145 3145 3145 3145 3144
3068 3069 3070 3071 3072 3073 3075 3078 3080 3083 3086 3089 3091 3094 3097 3099 3101 3103 3106 3107 3109 3111 3112 3114 3115 3116 3116 3118 3119 3120 3121 3122 3123 3124 3126 3127 3127 3128 3129 3130 3132 3133 3134 3135 3136 3137 3137 3138 3138 3139 3139 3140 3141 3141 3142 3142 3142 3142 3142 3142 3142 3142 3142
3067 3067 3068 3070 3071 3072 3073 3075 3077 3081 3084 3086 3089 3092 3094 3096 3099 3101 3103 3105 3107 3108 3110 3112 3113 3114 3115 3116 3118 3119 3120 3121 3122 3123 3124 3125 3126 3127 3128 3129 3130 3131 3131 3132 3134 3135 3135 3136 3136 3137 3138 3138 3139 3140 3140 3140 3140 3140 3140 3139 3139 3139 3139
3066 3067 3068 3069 3069 3070 3071 3073 3076 3079 3082 3083 3087 3090 3091 3093 3096 3098 3101 3103 3105 3106 3108 3109 3111 3112 3114 3115 3116 3117 3119 3120 3121 3121 3122 3123 3124 3125 3126 3127 3128 3128 3129 3130 3131 3132 3133 3134 3135 3135 3136 3137 3137 3138 3138 3138 3138 3138 3138 3137 3137 3136 3136
3067 3067 3067 3068 3068 3069 3070 3072 3074 3077 3079 3081 3085 3088 3089 3090 3093 3096 3098 3101 3102 3104 3106 3107 3108 3110 3111 3113 3114 3116 3117 3118 3119 3120 3120 3121 3122 3123 3124 3125 3125 3126 3127 3128 3129 3130 3131 3132 3132 3133 3134 3134 3135 3135 3135 3136 3136 3135 3135 3135 3134 3134 3134
3067 3066 3066 3066 3067 3068 3069 3071 3073 3075 3077 3079 3082 3085 3086 3088 3091 3094 3096 3098 3100 3101 3103 3105 3106 3107 3109 3110 3112 3113 3115 3116 3117 3118 3118 3119 3120 3120 3121 3122 3123 3124 3125 3126 3126 3127 3128 3129 3129 3130 3131 3131 3132 3132 3132 3132 3132 3132 3132 3132 3131 3131 3130
3067 3066 3066 3066 3067 3068 3069 3071 3073 3074 3075 3077 3079 3082 3084 3086 3089 3091 3094 3095 3097 3099 3101 3102 3103 3105 3106 3107 3109 3110 3112 3114 3114 3115 3116 3117 3117 3118 3118 3119 3120 3122 3123 3124 3124 3124 3125 3125 3126 3127 3128 3128 3128 3129 3129 3129 3129 3129 3129 3128 3127 3127 3126
3068 3068 3067 3067 3068 3069 3070 3071 3072 3074 3075 3076 3078 3080 3082 3084 3086 3088 3090 3092 3094 3096 3098 3099 3100 3102 3103 3104 3106 3107 3110 3111 3111 3113 3114 3114 3115 3116 3117 3117 3118 3119 3120 3121 3121 3122 3122 3123 3123 3124 3125 3125 3125 3125 3125 3125 3125 3125 3124 3123 3123 3122 3122
3070 3069 3069 3069 3069 3069 3070 3071 3072 3073 3075 3076 3078 3080 3081 3082 3084 3086 3088 3090 3092 3093 3094 3096 3097 3098 3099 3101 3103 3105 3106 3108 3108 3109 3110 3111 3112 3113 3114 3115 3115 3116 3117 3118 3118 3119 3119 3120 3121 3121 3122 3122 3122 3121 3121 3120 3120 3119 3119 3119 3118 3118 3118
3071 3070 3070 3070 3070 3069 3070 3071 3071 3072 3073 3075 3077 3079 3081 3082 3083 3085 3086 3088 3089 3090 3092 3093 3093 3094 3095 3098 3100 3101 3103 3104 3105 3106 3107 3108 3108 3109 3110 3111 3112 3113 3114 3114 3115 3116 3117 3117 3118 3118 3118 3118 3118 3117 3117 3116 3116 3115 3115 3115 3114 3114 3113
3072 3071 3071 3071 3071 3071 3071 3071 3071 3071 3072 3073 3075 3077 3079 3080 3082 3083 3084 3086 3086 3087 3088 3089 3089 3090 3092 3094 3096 3098 3099 3100 3101 3102 3103 3104 3105 3106 3107 3108 3109 3110 3110 3111 3112 3113 3114 3114 3115 3115 3115 3115 3114 3114 3113 3113 3113 3112 3112 3112 3111 3110 3110